EW3791 Weather Reports


Display with metric or nautical units.
time (UTC)temp
F
wind
direction
speed
MPH
gust
MPH
rain 1hr
in
rain 24hr
in
rain mn
in
humidity
%
barometer
mb
20260507050106 72 1 5.0 12.0 0.00 0.00 0.00 83 1011.8
20260507044542 72 324 6.0 13.0 0.00 0.00 0.00 83 1011.7
20260507043010 73 354 6.0 14.0 0.00 0.00 0.00 83 1011.9
20260507041549 73 335 6.0 15.0 0.00 0.00 0.00 82 1011.9
20260507040019 74 323 7.0 13.0 0.00 0.00 0.00 82 1011.8
20260507034620 74 336 6.0 14.0 0.00 0.00 0.00 83 1011.5
20260507033025 75 316 10.0 15.0 0.00 0.00 0.00 82 1011.2
20260507031606 75 14 7.0 14.0 0.00 0.00 0.00 83 1010.9
20260507030032 76 312 8.0 14.0 0.00 0.00 0.00 84 1010.6
20260507024504 77 340 5.0 13.0 0.00 0.00 0.00 84 1010.0
20260507023047 77 319 5.0 8.0 0.00 0.00 0.00 85 1009.8
20260507021517 77 332 3.0 9.0 0.00 0.00 0.00 85 1009.5
20260507020059 78 19 4.0 14.0 0.00 0.00 0.00 84 1009.5
20260507014525 81 302 4.0 11.0 0.00 0.00 0.00 86 1009.2
20260507013116 81 156 2.0 6.0 0.00 0.00 0.00 87 1008.7
20260507011539 82 180 2.0 5.0 0.00 0.00 0.00 87 1008.4
20260507010024 82 218 1.0 5.0 0.00 0.00 0.00 86 1008.2
20260507004556 82 170 2.0 7.0 0.00 0.00 0.00 86 1007.8
20260507003024 82 143 2.0 6.0 0.00 0.00 0.00 86 1007.9
20260507001614 82 175 4.0 10.0 0.00 0.00 0.00 86 1007.8
20260507000037 83 158 3.0 8.0 0.00 0.00 0.00 85 1007.7
20260506234508 83 169 4.0 10.0 0.00 0.00 0.00 85 1007.7
20260506233059 83 144 5.0 9.0 0.00 0.00 0.00 84 1007.6
20260506231534 84 194 6.0 12.0 0.00 0.00 0.00 82 1007.5
20260506230112 85 146 4.0 9.0 0.00 0.00 0.00 81 1007.3
20260506224549 85 132 5.0 9.0 0.00 0.00 0.00 81 1007.3
20260506223014 85 170 4.0 9.0 0.00 0.00 0.00 82 1007.3
20260506221555 85 192 4.0 9.0 0.00 0.00 0.00 81 1007.2
20260506220032 85 178 3.0 10.0 0.00 0.00 0.00 81 1007.1
20260506214601 85 108 6.0 11.0 0.00 0.00 0.00 81 1007.0
20260506213028 84 225 4.0 14.0 0.00 0.00 0.00 82 1007.2
20260506211604 85 160 5.0 13.0 0.00 0.00 0.00 81 1007.4
20260506210034 85 226 5.0 10.0 0.00 0.00 0.00 80 1007.3
20260506204509 85 165 3.0 11.0 0.00 0.00 0.00 82 1007.5
20260506203054 84 153 5.0 12.0 0.00 0.00 0.00 82 1007.6
20260506201519 84 132 4.0 9.0 0.00 0.00 0.00 82 1007.8
20260506200107 85 166 4.0 11.0 0.00 0.00 0.00 81 1007.9
20260506194537 83 153 5.0 13.0 0.00 0.00 0.00 83 1007.9
20260506193113 85 176 6.0 14.0 0.00 0.00 0.00 81 1008.1
20260506191539 85 137 4.0 11.0 0.00 0.00 0.00 80 1008.2
20260506190007 85 82 4.0 9.0 0.00 0.00 0.00 80 1008.4
20260506184550 84 176 4.0 9.0 0.00 0.00 0.00 80 1008.6
20260506183021 84 128 2.0 8.0 0.00 0.00 0.00 81 1008.8
20260506181627 83 193 4.0 8.0 0.00 0.00 0.00 82 1009.0
20260506180033 83 200 2.0 8.0 0.00 0.00 0.00 83 1009.4
20260506174503 83 159 5.0 10.0 0.00 0.00 0.00 83 1009.6
20260506173120 82 144 3.0 8.0 0.00 0.00 0.00 85 1009.8
20260506171523 81 167 7.0 11.0 0.00 0.00 0.00 86 1009.8
20260506170109 80 150 2.0 9.0 0.00 0.00 0.00 88 1010.0
20260506164552 80 137 4.0 7.0 0.00 0.00 0.00 88 1010.0
20260506163023 80 190 2.0 8.0 0.00 0.00 0.00 89 1009.9
20260506161606 79 121 2.0 10.0 0.00 0.00 0.00 89 1009.7
20260506160040 79 153 2.0 8.0 0.00 0.00 0.00 89 1009.7
20260506154514 79 131 3.0 6.0 0.00 0.00 0.00 88 1009.6
20260506153045 79 122 2.0 5.0 0.00 0.00 0.00 88 1009.5
20260506151518 79 167 1.0 5.0 0.00 0.00 0.00 89 1009.3
20260506150054 79 139 4.0 10.0 0.00 0.00 0.00 89 1009.1
20260506144521 79 152 5.0 9.0 0.00 0.00 0.00 90 1008.9
20260506143104 79 184 4.0 10.0 0.00 0.00 0.00 91 1008.7
20260506141532 78 178 6.0 11.0 0.00 0.00 0.00 91 1008.7
20260506140005 78 169 5.0 12.0 0.00 0.00 0.00 92 1008.8
20260506134543 78 129 7.0 12.0 0.00 0.00 0.00 92 1008.9
20260506133021 77 125 3.0 10.0 0.00 0.00 0.00 93 1009.0
20260506131606 77 109 3.0 8.0 0.00 0.00 0.00 93 1009.0
20260506130038 77 132 3.0 7.0 0.00 0.00 0.00 93 1009.1
20260506124608 77 155 2.0 4.0 0.00 0.00 0.00 94 1009.0
20260506123039 77 121 2.0 8.0 0.00 0.00 0.00 94 1008.9
20260506121505 76 132 2.0 7.0 0.00 0.00 0.00 93 1008.8
20260506120050 76 125 3.0 8.0 0.00 0.00 0.00 94 1008.5
20260506114522 76 158 3.0 6.0 0.00 0.00 0.00 93 1008.3
20260506113104 76 116 3.0 8.0 0.00 0.00 0.00 93 1008.1
20260506111539 76 169 4.0 8.0 0.00 0.00 0.00 93 1007.9
20260506110011 76 151 6.0 12.0 0.00 0.00 0.00 93 1007.7
20260506104604 76 147 4.0 9.0 0.00 0.00 0.00 93 1007.7
20260506103040 76 146 6.0 13.0 0.00 0.00 0.00 93 1007.6
20260506101505 76 169 6.0 13.0 0.00 0.00 0.00 93 1007.5
20260506100045 76 152 7.0 13.0 0.00 0.00 0.00 94 1007.6
20260506094510 76 139 6.0 14.0 0.00 0.00 0.00 93 1007.5
20260506093054 76 125 4.0 12.0 0.00 0.00 0.00 93 1007.4
20260506091528 76 148 6.0 10.0 0.00 0.00 0.00 93 1007.6
20260506090112 76 139 2.0 6.0 0.00 0.00 0.00 92 1007.7
20260506084541 76 186 3.0 7.0 0.00 0.00 0.00 92 1007.8
20260506083008 77 174 3.0 11.0 0.00 0.00 0.00 92 1008.0
20260506081546 77 143 5.0 13.0 0.00 0.00 0.00 91 1008.0
20260506073040 77 110 5.0 10.0 0.00 0.00 0.00 91 1008.3
20260506071514 77 184 4.0 13.0 0.00 0.00 0.00 91 1008.4
20260506061534 77 158 3.0 9.0 0.00 0.00 0.00 90 1008.7